Lexington, KY

7:14 AM EDT on September 30, 2016 (GMT -0400)
Blue Grass

Weather History for KLEX - May, 2013

Change the Weather History Date:

Tuesday, May 21, 2013

  Actual Average Record
Temperature  
Mean Temperature 75 °F 66 °F  
Max Temperature 85 °F 76 °F 92 °F (1941)
Min Temperature 65 °F 55 °F 37 °F (2002)
Degree Days  
Heating Degree Days 0 3  
Month to date heating degree days 62 91  
Since 1 July heating degree days 4648 4580  
Cooling Degree Days 10 3  
Month to date cooling degree days 64 42  
Year to date cooling degree days 94 64  
Growing Degree Days 24 (Base 50)    
Moisture  
Dew Point 65 °F    
Average Humidity 71    
Maximum Humidity 93    
Minimum Humidity 48    
Precipitation  
Precipitation 0.25 in 0.17 in 2.11 in (2010)
Month to date precipitation 4.80 3.54  
Year to date precipitation 21.00 17.61  
Snow  
Snow 0.00 in 0.00 in - ()
Month to date snowfall 0.0 0.0  
Since 1 July snowfall 12.5 13.0  
Snow Depth 0.00 in    
Sea Level Pressure  
Sea Level Pressure 29.92 in    
Wind  
Wind Speed 9 mph (SSW)    
Max Wind Speed 29 mph    
Max Gust Speed 39 mph    
Visibility 9 miles    
Events Rain    
T = Trace of Precipitation, MM = Missing Value Source: NWS Daily Summary

Daily Weather History Graph

Daily Weather History Graph

Search for Another Location

Airport or City:

Trip Planner

Search our weather history database for the weather conditions in past years. The results will help you decide how hot, cold, wet, or windy it might be!

Date:

Astronomy

May. 21, 2013 Rise Set
Actual Time 6:23 AM EDT 8:47 PM EDT
Civil Twilight 5:53 AM EDT 9:17 PM EDT
Nautical Twilight 5:16 AM EDT 9:54 PM EDT
Astronomical Twilight 4:35 AM EDT 10:35 PM EDT
Moon 5:03 PM EDT (5/21) 3:46 AM EDT (5/21)
Length of Visible Light 15h 24m
Length of Day
14h 24m
Waxing Gibbous, 84% of the Moon is Illuminated
May 21
Waxing Gibbous
May 25
Full
May 31
Last Quarter
Jun 8
New
Jun 16
First Quarter

Hourly Weather History & Observations

Time (EDT) Temp. Heat Index Dew Point Humidity Pressure Visibility Wind Dir Wind Speed Gust Speed Precip Events Conditions
12:54 AM 72.0 °F - 66.9 °F 84% 29.93 in 10.0 mi South 6.9 mph - N/A   Clear
1:54 AM 72.0 °F - 66.9 °F 84% 29.93 in 10.0 mi South 8.1 mph - N/A   Clear
2:54 AM 72.0 °F - 66.0 °F 81% 29.93 in 10.0 mi SSW 8.1 mph - N/A   Clear
3:54 AM 69.1 °F - 66.0 °F 90% 29.93 in 9.0 mi South 4.6 mph - N/A   Clear
4:54 AM 69.1 °F - 64.9 °F 87% 29.92 in 9.0 mi South 5.8 mph - N/A   Clear
5:54 AM 69.1 °F - 64.9 °F 87% 29.92 in 8.0 mi South 8.1 mph - N/A   Clear
6:54 AM 69.1 °F - 64.9 °F 87% 29.94 in 7.0 mi South 4.6 mph - N/A   Clear
7:54 AM 70.0 °F - 66.0 °F 87% 29.96 in 7.0 mi Calm Calm - N/A   Clear
8:54 AM 71.1 °F - 66.9 °F 87% 29.97 in 7.0 mi SSW 3.5 mph - N/A   Mostly Cloudy
9:04 AM 71.6 °F - 66.2 °F 83% 30.00 in 8.0 mi SW 3.5 mph - N/A   Overcast
9:46 AM 73.4 °F - 66.2 °F 78% 29.99 in 9.0 mi SW 8.1 mph - N/A   Scattered Clouds
9:54 AM 73.9 °F - 68.0 °F 82% 29.97 in 9.0 mi SW 5.8 mph - N/A   Partly Cloudy
10:54 AM 75.0 °F - 66.9 °F 76% 29.94 in 10.0 mi South 6.9 mph - N/A   Clear
11:54 AM 78.1 °F - 69.1 °F 74% 29.92 in 10.0 mi South 9.2 mph - N/A   Clear
12:54 PM 81.0 °F 82.7 °F 64.9 °F 58% 29.92 in 10.0 mi SW 15.0 mph 20.7 mph N/A   Clear
1:54 PM 82.0 °F 84.1 °F 66.0 °F 58% 29.90 in 10.0 mi South 15.0 mph 19.6 mph N/A   Clear
2:54 PM 84.0 °F 85.4 °F 64.0 °F 51% 29.89 in 10.0 mi SSW 16.1 mph 24.2 mph N/A   Clear
3:54 PM 84.9 °F 85.9 °F 63.0 °F 48% 29.89 in 10.0 mi SW 13.8 mph 24.2 mph N/A   Partly Cloudy
4:54 PM 75.9 °F - 60.1 °F 58% 29.91 in 10.0 mi WSW 24.2 mph 39.1 mph N/A   Mostly Cloudy
5:05 PM 69.8 °F - 64.4 °F 83% 29.97 in 1.8 mi SW 17.3 mph 31.1 mph 0.00 in Rain Heavy Rain
5:18 PM 68.0 °F - 64.4 °F 88% 29.96 in 3.0 mi SW 10.4 mph 21.9 mph 0.19 in Rain Light Rain
5:54 PM 68.0 °F - 64.9 °F 90% 29.91 in 6.0 mi South 9.2 mph - 0.24 in Rain Rain
6:54 PM 69.1 °F - 66.0 °F 90% 29.85 in 10.0 mi South 5.8 mph - 0.01 in   Clear
7:54 PM 69.1 °F - 64.0 °F 84% 29.87 in 10.0 mi SSE 9.2 mph - N/A   Clear
8:54 PM 66.9 °F - 63.0 °F 87% 29.88 in 10.0 mi SSE 8.1 mph - N/A   Partly Cloudy
9:54 PM 66.0 °F - 63.0 °F 90% 29.89 in 10.0 mi South 4.6 mph - N/A   Clear
10:54 PM 64.9 °F - 62.1 °F 90% 29.89 in 10.0 mi South 6.9 mph - N/A   Clear
11:54 PM 66.0 °F - 61.0 °F 84% 29.89 in 10.0 mi South 9.2 mph - N/A   Mostly Cloudy